Simultaneous Nadir Overpasses (SNOs) Predictions

Prediction of SNOs between AQUA and METOP-C Satellite Orbit:

Table of predicted SNOs for the next 14.0 days since TLE Epoch: 5/11/2024
Index Date (AQUA) Time (AQUA) Lat,Lon (AQUA) SZA (AQUA ) Date (METOP-C) Time (METOP-C) Lat,Lon (METOP-C) SZA (METOP-C ) Distance(km) Time Diff (sec)
1 05/11/2024 10:53:49 -75.30,-165.20 122.85 05/11/2024 10:52:53 -75.31,-165.17 122.84 1.28 56
2 05/11/2024 11:43:13 75.34, 2.35 57.18 05/11/2024 11:43:33 75.35, 2.27 57.19 2.35 20
3 05/14/2024 02:15:08 74.88, 145.62 56.08 05/14/2024 02:14:01 74.84, 143.22 56.05 69.82 67
4 05/14/2024 03:04:38 -75.33, -47.93 123.49 05/14/2024 03:04:31 -75.35, -47.94 123.46 3.06 7
5 05/14/2024 03:54:02 75.37, 119.60 56.56 05/14/2024 03:55:11 75.39, 119.49 56.57 3.58 69
6 05/16/2024 18:25:59 75.35, -98.27 55.92 05/16/2024 18:25:29 75.33, -98.26 55.91 2.17 30
7 05/16/2024 19:15:21 -75.39, 69.27 124.05 05/16/2024 19:16:09 -75.37, 69.20 124.06 2.83 48
8 05/19/2024 09:47:10 -75.33,-148.48 124.67 05/19/2024 09:46:25 -75.33,-148.47 124.67 0.34 45
9 05/19/2024 10:36:34 75.39, 19.01 55.39 05/19/2024 10:37:04 75.40, 19.08 55.40 2.40 30
10 05/22/2024 01:08:17 75.31, 161.34 54.78 05/22/2024 01:07:21 75.33, 161.31 54.80 2.62 56
11 05/22/2024 01:57:40 -75.41, -31.26 125.14 05/22/2024 01:58:01 -75.38, -31.21 125.16 2.97 21
12 05/24/2024 16:29:17 -75.35, 111.04 125.68 05/24/2024 16:28:17 -75.34, 111.10 125.69 1.96 60
13 05/24/2024 17:18:40 75.37, -81.37 54.34 05/24/2024 17:18:56 75.40, -81.38 54.37 3.19 16



Historial Predications of SNOs between AQUA and METOP-C
